User: anonymous   Login
Location: Eckley
(40.9930°N, 75.8630°W)
Time: 13:18:31
(UTC-04:00)
Language:

Cosmos 2221 Rocket - Orbit

View from above orbital plane
View from above orbital plane
View from above satellite
View from above satellite

Ground track
Ground track

The orbit data is extracted from the following two-line orbital elements,

1 22237U 92080B   17174.91062824 +.00000023 +00000-0 -24636-7 0  9991
2 22237 082.5128 111.4744 0019664 179.0614 243.4173 14.78318453324344
Epoch (UTC): 23 June 2017 21:51:18
Eccentricity: 0.0019664
inclination: 82.5128°
perigee height: 621 km
apogee height: 648 km
right ascension of ascending node: 111.4744°
argument of perigee: 179.0614°
revolutions per day: 14.78318453
mean anomaly at epoch: 243.4173°
orbit number at epoch: 32434

The dashed part of the orbit path shows where the satellite is in the earth's shadow,  

DLR